| time (UTC) | temp C | wind direction | speed KPH | gust KPH | rain 1hr cm | rain 24hr cm | rain mn cm | humidity % | barometer mb |
| 20260503204553 | 18 | 139 | 17.7 | 32.2 | 0.00 | 0.00 | 0.00 | 73 | 1032.3 |
| 20260503203050 | 18 | 133 | 9.7 | 25.7 | 0.00 | 0.00 | 0.00 | 71 | 1032.3 |
| 20260503201545 | 17 | 134 | 14.5 | 24.1 | 0.00 | 0.00 | 0.00 | 79 | 1032.3 |
| 20260503200045 | 17 | 135 | 16.1 | 37.0 | 0.00 | 0.00 | 0.00 | 77 | 1032.2 |
| 20260503194546 | 17 | 129 | 12.9 | 19.3 | 0.00 | 0.00 | 0.00 | 77 | 1032.2 |
| 20260503193102 | 17 | 128 | 11.3 | 25.7 | 0.00 | 0.00 | 0.00 | 75 | 1032.1 |
| 20260503191544 | 17 | 126 | 16.1 | 25.7 | 0.00 | 0.00 | 0.00 | 73 | 1031.9 |
| 20260503190053 | 17 | 153 | 14.5 | 29.0 | 0.00 | 0.00 | 0.00 | 72 | 1031.8 |
| 20260503184541 | 17 | 157 | 16.1 | 30.6 | 0.00 | 0.00 | 0.00 | 73 | 1031.8 |
| 20260503183056 | 17 | 85 | 19.3 | 29.0 | 0.00 | 0.00 | 0.00 | 71 | 1031.7 |
| 20260503181542 | 17 | 166 | 8.0 | 27.4 | 0.00 | 0.00 | 0.00 | 71 | 1031.7 |
| 20260503180051 | 17 | 41 | 11.3 | 35.4 | 0.00 | 0.00 | 0.00 | 72 | 1031.7 |
| 20260503174544 | 17 | 224 | 9.7 | 22.5 | 0.00 | 0.00 | 0.00 | 74 | 1031.5 |
| 20260503173105 | 17 | 115 | 16.1 | 33.8 | 0.00 | 0.00 | 0.00 | 77 | 1031.5 |
| 20260503171549 | 16 | 145 | 14.5 | 19.3 | 0.00 | 0.00 | 0.00 | 78 | 1031.4 |
| 20260503081546 | 17 | 135 | 14.5 | 22.5 | 0.00 | 0.00 | 0.00 | 77 | 1031.9 |
| 20260503071545 | 17 | 136 | 14.5 | 24.1 | 0.00 | 0.00 | 0.00 | 75 | 1031.7 |
| 20260503054543 | 17 | 127 | 25.7 | 32.2 | 0.00 | 0.00 | 0.00 | 74 | 1031.1 |
| 20260503053037 | 17 | 146 | 20.9 | 32.2 | 0.00 | 0.00 | 0.00 | 73 | 1030.9 |
| 20260503051537 | 18 | 125 | 22.5 | 35.4 | 0.00 | 0.00 | 0.00 | 75 | 1030.8 |
| 20260503050039 | 18 | 110 | 24.1 | 32.2 | 0.00 | 0.00 | 0.00 | 71 | 1030.8 |
| 20260503044536 | 18 | 135 | 16.1 | 33.8 | 0.00 | 0.00 | 0.00 | 73 | 1030.7 |
| 20260503043041 | 18 | 124 | 12.9 | 32.2 | 0.00 | 0.00 | 0.00 | 75 | 1030.7 |
| 20260503041541 | 18 | 124 | 12.9 | 22.5 | 0.00 | 0.00 | 0.00 | 74 | 1030.9 |
| 20260503040041 | 18 | 140 | 19.3 | 40.2 | 0.00 | 0.00 | 0.00 | 75 | 1030.7 |
| 20260503034536 | 18 | 115 | 20.9 | 35.4 | 0.00 | 0.00 | 0.00 | 76 | 1030.7 |
| 20260503033043 | 18 | 129 | 19.3 | 30.6 | 0.00 | 0.00 | 0.00 | 75 | 1030.7 |
| 20260503031543 | 19 | 162 | 11.3 | 22.5 | 0.00 | 0.00 | 0.00 | 75 | 1030.7 |
| 20260503030039 | 18 | 126 | 12.9 | 24.1 | 0.00 | 0.00 | 0.00 | 76 | 1030.7 |
| 20260503024539 | 18 | 108 | 19.3 | 35.4 | 0.00 | 0.00 | 0.00 | 77 | 1030.7 |
| 20260503023039 | 18 | 114 | 20.9 | 37.0 | 0.00 | 0.00 | 0.00 | 76 | 1030.8 |
| 20260503021549 | 18 | 136 | 22.5 | 33.8 | 0.00 | 0.00 | 0.00 | 75 | 1030.9 |
| 20260503020050 | 18 | 131 | 20.9 | 33.8 | 0.00 | 0.00 | 0.00 | 74 | 1031.0 |
| 20260503014606 | 18 | 115 | 24.1 | 32.2 | 0.00 | 0.00 | 0.00 | 75 | 1031.0 |
| 20260503013042 | 18 | 115 | 22.5 | 33.8 | 0.00 | 0.00 | 0.00 | 74 | 1031.2 |
| 20260503011545 | 18 | 143 | 11.3 | 30.6 | 0.00 | 0.00 | 0.00 | 75 | 1031.5 |
| 20260503010047 | 18 | 127 | 11.3 | 25.7 | 0.00 | 0.00 | 0.00 | 75 | 1031.7 |
| 20260503004555 | 18 | 141 | 14.5 | 32.2 | 0.00 | 0.00 | 0.00 | 76 | 1031.7 |
| 20260503003043 | 18 | 122 | 19.3 | 29.0 | 0.00 | 0.00 | 0.00 | 78 | 1031.6 |
| 20260503001539 | 18 | 120 | 12.9 | 25.7 | 0.00 | 0.00 | 0.00 | 81 | 1032.0 |
| 20260503000041 | 18 | 125 | 17.7 | 30.6 | 0.00 | 0.00 | 0.00 | 82 | 1032.2 |
| 20260502234542 | 18 | 138 | 17.7 | 25.7 | 0.00 | 0.00 | 0.00 | 82 | 1032.4 |
| 20260502233045 | 18 | 131 | 22.5 | 29.0 | 0.00 | 0.00 | 0.00 | 81 | 1032.6 |
| 20260502231542 | 18 | 128 | 17.7 | 25.7 | 0.00 | 0.00 | 0.00 | 83 | 1032.7 |
| 20260502230046 | 17 | 124 | 19.3 | 27.4 | 0.00 | 0.00 | 0.00 | 84 | 1032.8 |
| 20260502224540 | 17 | 121 | 11.3 | 19.3 | 0.00 | 0.00 | 0.00 | 87 | 1032.8 |
| 20260502223042 | 16 | 146 | 14.5 | 20.9 | 0.00 | 0.00 | 0.00 | 88 | 1032.8 |
| 20260502221544 | 16 | 123 | 12.9 | 20.9 | 0.00 | 0.00 | 0.00 | 88 | 1033.0 |
| 20260502220045 | 16 | 124 | 11.3 | 19.3 | 0.00 | 0.00 | 0.00 | 90 | 1033.0 |
| 20260502214540 | 15 | 143 | 14.5 | 19.3 | 0.00 | 0.00 | 0.00 | 91 | 1033.0 |
| 20260502213042 | 15 | 98 | 14.5 | 22.5 | 0.00 | 0.00 | 0.00 | 92 | 1033.1 |
| 20260502211553 | 15 | 128 | 14.5 | 20.9 | 0.00 | 0.00 | 0.00 | 92 | 1033.1 |
| 20260502210041 | 15 | 108 | 17.7 | 24.1 | 0.00 | 0.00 | 0.00 | 89 | 1033.0 |